Main page
METAR-TAF:

METAR-TAF

Airports :

South Wood County Airport

Wisconsin Rapids, Wisconsin, United States

latitude: 44-21-33N, longitude: 089-50-13W, elevation: 1020 ft

Current weather observation

The report was made 51 minutes ago, at 02:54 UTC
Calm wind
Temperature 72°F
Humidity 78%
Pressure 29.93 in. Hg
Visibility: 10 miles
Scattered clouds at a height of 4900 ft
Broken clouds at a height of 6000 ft

METAR: KISW 260254Z AUTO 00000KT 10SM SCT049 BKN060 22/18 A2993 RMK AO2 SLP128 T02170183 53018

Time: 22:45 (03:45 UTC)


TAF: missing

Weather observations and forecasts of more than 4000 airports (METAR and TAF reports).

The available stations are represented by yellow and red dots on the map.

Hover mouse over dot to see the name of the station.

Then click to see weather observations and forecasts.

To change the map : click on the green buttons with a black cross to zoom in, on the green button with a dash to zoom out, or on the green arrows for adjacent maps.


METAR-TAF: